----------------------------------------------------------------------------------------------------------------------------------------------------------
    Averages\Extremes for day :August 2018
----------------------------------------------------------------------------------------------------------------------------------------------------------
Day      Temp         Wind       Gust       Rain       Max Temp     Min Temp   Av Hum   Av Baro       Av Dir       Wind run   Windchill Sunshine  ET  Max Solar
----------------------------------------------------------------------------------------------------------------------------------------------------------
 01      26.9C    05.7kmh    22.2kmh    00.0mm       29.6C       22.3C     083%     1014.5 hPa     097  ( E )  132.6km   22.3C    11:42   4.7    873.0       
 02      28.1C    05.4kmh    25.9kmh    00.0mm       31.7C       24.4C     078%     1015.2 hPa     086  ( E )  128.9km   24.4C    11:12   6.6    869.0       
 03      28.5C    04.3kmh    24.1kmh    00.0mm       31.4C       24.7C     071%     1014.6 hPa     143  ( SE)  102.4km   24.7C    10:42   6.4    847.0       
 04      29.6C    05.7kmh    27.8kmh    00.0mm       32.2C       26.1C     067%     1014.3 hPa     124  ( SE)  136.6km   26.1C    10:06   6.7    871.0       
 05      30.2C    04.4kmh    22.2kmh    00.0mm       34.2C       26.4C     064%     1013.4 hPa     110  (ESE)  104.5km   26.4C    10:30   6.3    864.0       
 06      29.0C    06.7kmh    25.9kmh    00.0mm       31.2C       26.1C     077%     1012.7 hPa     136  ( SE)  158.5km   26.1C    09:12   5.5    901.0       
 07      28.2C    08.5kmh    25.9kmh    00.0mm       29.9C       26.8C     078%     1011.5 hPa     142  ( SE)  200.4km   26.8C    09:42   6.0    832.0       
 08      28.1C    08.9kmh    27.8kmh    00.0mm       29.8C       26.8C     077%     1011.8 hPa     115  (ESE)  206.3km   26.8C    09:00   6.9    909.0       
 09      27.9C    08.2kmh    25.9kmh    00.0mm       30.3C       26.3C     080%     1012.7 hPa     127  ( SE)  187.5km   26.3C    04:00   5.2    987.0       
 10      27.9C    12.2kmh    29.6kmh    00.6mm       29.9C       26.3C     080%     1018.4 hPa     071  (ENE)  289.5km   26.3C    07:30   6.8    941.0       
 11      27.8C    08.6kmh    27.8kmh    02.4mm       29.8C       26.6C     080%     1019.0 hPa     091  ( E )  192.8km   26.6C    17:30   5.4    0.0       
 12      27.5C    06.7kmh    25.9kmh    02.4mm       29.3C       25.6C     079%     1014.9 hPa     121  (ESE)  155.0km   25.6C    11:30   6.2    936.0       
 13      27.9C    07.7kmh    29.6kmh    00.0mm       30.7C       25.2C     076%     1011.4 hPa     169  ( S )  164.9km   25.2C    08:30   7.2    0.0       
 14      27.8C    09.6kmh    27.8kmh    00.2mm       30.0C       25.4C     077%     1014.2 hPa     077  (ENE)  175.2km   25.4C    06:00   5.1    1109.0       
 15      27.3C    09.1kmh    29.6kmh    00.0mm       29.4C       26.2C     067%     1015.8 hPa     116  (ESE)  216.5km   26.2C    01:18   2.0    1053.0       
 16      26.9C    05.9kmh    31.5kmh    00.0mm       29.3C       24.8C     069%     1013.9 hPa     163  (SSE)  141.6km   24.8C    00:00   0.0    1056.0       
 17      23.4C    04.4kmh    33.3kmh    46.2mm       26.1C       19.3C     080%     1014.8 hPa     019  (NNE)  104.6km   19.3C    00:00   0.0    506.0       
---------------------------------------------------------------------------------------------
   Averages\Extremes for the month of August 2018
 
 ---------------------------------------------------------------------------------------------
 Average temperature     = 27.8C
 Average humidity        = 75%
 Average dewpoint        = 23.0C
 Average barometer       = 1014.4 hPa
 Average windspeed       = 7.1 km/h
 Average gustspeed       = 13.8 km/h
 Average direction       = 111 (ESE)
 Rainfall for month      = 49.4 mm
 Rainfall for year       = 283.0 mm
 Maximum rain per minute = 2.0 mm on day 17 at time 08:41
 Maximum temperature     = 34.2C on day 05 at time 08:40
 Minimum temperature     = 19.3C on day 17 at time 10:49
 Maximum humidity        = 92% on day 17 at time 12:13
 Minimum humidity        = 36% on day 05 at time 08:30
 Maximum dewpoint        = 26.7C on day 06 at time 11:00
 Minimum dewpoint        = 17.0C on day 05 at time 08:30
 Maximum pressure        = 1020.6 hPa on day 10 at time 22:40
 Minimum pressure        = 1009.6 hPa on day 13 at time 18:22
 Maximum windspeed       = 25.9 kmh from 05( N ) on day 17 at time 09:10
 Maximum gust speed      = 33.3 km/h from 338(NNW) on day 17 at time 09:02
 Maximum heat index      = 40.3C on day 05 at time 15:50
 Avg daily max temp :30.3C
 Avg daily min temp :25.2C
 Growing degrees days :296.2 GDD
 Corn growing degrees days :563.0 GDD
 Total windrun = 2797.7km
 ------------------------------------------
 Day, Sunshine hours, ET, max solar, max uv
 ------------------------------------------
 01 11:42hrs ,ET :4.7 mm  ,873.0 W/m
 02 11:12hrs ,ET :6.6 mm  ,869.0 W/m
 03 10:42hrs ,ET :6.4 mm  ,847.0 W/m
 04 10:06hrs ,ET :6.7 mm  ,871.0 W/m
 05 10:30hrs ,ET :6.3 mm  ,864.0 W/m
 06 09:12hrs ,ET :5.5 mm  ,901.0 W/m
 07 09:42hrs ,ET :6.0 mm  ,832.0 W/m
 08 09:00hrs ,ET :6.9 mm  ,909.0 W/m
 09 04:00hrs ,ET :5.2 mm  ,987.0 W/m
 10 07:30hrs ,ET :6.8 mm  ,941.0 W/m
 11 17:30hrs ,ET :5.4 mm  ,0.0 W/m
 12 11:30hrs ,ET :6.2 mm  ,936.0 W/m
 13 08:30hrs ,ET :7.2 mm  ,0.0 W/m
 14 06:00hrs ,ET :5.1 mm  ,1109.0 W/m
 15 01:18hrs ,ET :2.0 mm  ,1053.0 W/m
 16 00:00hrs ,ET :0.0 mm  ,1056.0 W/m
 17 00:00hrs ,ET :0.0 mm  ,506.0 W/m
 18 00:00hrs ,ET :0.0 mm  ,0.0 W/m
 19 00:00hrs ,ET :0.0 mm  ,0.0 W/m
 20 00:00hrs ,ET :0.0 mm  ,0.0 W/m
 21 00:00hrs ,ET :0.0 mm  ,0.0 W/m
 22 00:00hrs ,ET :0.0 mm  ,0.0 W/m
 23 00:00hrs ,ET :0.0 mm  ,0.0 W/m
 24 00:00hrs ,ET :0.0 mm  ,0.0 W/m
 25 00:00hrs ,ET :0.0 mm  ,0.0 W/m
 26 00:00hrs ,ET :0.0 mm  ,0.0 W/m
 27 00:00hrs ,ET :0.0 mm  ,0.0 W/m
 28 00:00hrs ,ET :0.0 mm  ,0.0 W/m
 29 00:00hrs ,ET :0.0 mm  ,0.0 W/m
 30 00:00hrs ,ET :0.0 mm  ,0.0 W/m
 Sunshine hours month to date= 218:48 hrs
 Sunshine hours year to date= 1465:15 hrs
 -----------------------------------
 Daily rain totals
 -----------------------------------
  00.6 mm  on day 10
  02.4 mm  on day 11
  02.4 mm  on day 12
  00.2 mm  on day 14
  46.2 mm  on day 17